Theta_e
328 328 323 317 318 321 323 323 323 324 325 325 328 331 334 337 336 334 334 333 333 334 334 336 339 340 339 339 339 338 338 337 336 336 335 335 334 334 332 329 332 337 339 338 335 333 332 331 330 325 325 327 326 326 327 328 329 330 332 334 335 335 335 335 334 334 332 330 331 332 332 332 332 331 331 331 331 330 329 326 321 321 323 320 320
325 332 330 319 318 322 322 322 324 325 325 323 325 331 334 337 337 334 333 332 330 330 330 332 336 339 339 339 338 338 337 336 337 336 335 335 334 334 330 327 333 339 339 337 336 336 334 333 331 326 325 327 326 327 326 328 329 329 331 334 335 335 335 335 335 334 332 330 330 331 331 331 331 330 330 330 330 329 327 324 321 321 321 319 320
323 332 335 324 318 323 323 323 326 326 327 325 325 328 334 336 336 335 333 331 329 329 330 330 333 336 338 337 336 338 337 336 336 335 335 336 336 335 328 325 335 340 339 336 336 337 335 333 330 326 328 328 327 328 329 329 328 328 332 335 335 335 335 335 335 334 333 331 330 330 330 329 329 328 328 329 330 328 325 322 323 323 319 316 319
323 329 336 332 323 320 322 323 325 325 325 325 324 324 330 334 336 336 332 331 330 328 329 330 331 333 334 336 336 337 337 336 336 336 337 337 338 336 327 327 337 340 338 336 336 337 336 335 331 327 330 330 329 330 331 329 327 329 332 334 335 335 335 335 334 334 334 332 331 331 330 329 328 326 327 327 327 325 321 320 321 321 317 315 318
324 326 333 339 333 321 318 320 321 323 321 322 323 320 323 330 335 338 334 331 330 328 329 330 331 332 332 335 336 336 337 338 338 338 339 339 339 336 330 332 339 339 338 337 336 337 337 336 334 332 332 331 330 330 331 330 328 330 332 332 333 334 335 335 333 333 333 332 331 331 330 330 329 327 326 325 324 322 318 317 318 317 315 315 317
322 324 326 336 338 326 318 319 320 321 320 321 322 318 320 328 335 340 338 334 331 329 329 329 330 332 331 332 333 335 337 340 341 340 340 339 339 336 333 337 340 338 338 338 337 338 337 337 337 335 333 331 331 331 332 331 329 329 331 332 332 332 335 335 333 332 332 332 332 331 330 330 329 328 326 324 323 320 317 316 316 315 315 315 315
319 321 322 328 335 330 320 318 320 318 318 321 321 318 320 325 333 341 343 340 335 331 329 329 329 330 331 331 331 332 336 340 341 340 340 339 338 336 335 338 340 339 338 338 339 338 337 337 337 337 336 333 330 330 332 332 328 327 329 331 331 332 334 334 333 333 332 332 332 331 331 330 330 328 327 326 323 320 319 317 315 314 314 314 314
318 319 320 322 329 331 322 317 317 316 317 319 320 318 317 321 328 340 345 344 341 334 329 330 329 329 330 332 332 331 333 339 340 340 340 339 337 336 336 338 340 339 338 339 339 339 338 338 337 337 337 334 332 330 331 331 327 326 327 329 331 332 332 333 333 332 332 332 331 331 331 330 330 328 327 327 325 322 320 316 314 313 313 313 312
317 317 319 320 324 326 321 318 316 316 317 317 318 317 317 321 330 340 345 345 344 341 333 330 330 329 330 332 333 332 332 337 340 340 340 339 337 336 337 338 338 339 339 339 339 339 339 338 337 337 337 337 334 331 332 332 328 326 327 329 331 332 331 331 331 331 331 332 331 331 331 330 329 328 327 326 325 323 320 317 315 314 313 313 312
317 317 317 318 321 321 316 316 316 315 316 316 317 319 319 324 330 338 344 344 344 343 337 331 331 330 330 332 333 333 333 335 339 341 340 340 339 338 338 338 338 338 338 339 339 339 339 338 338 337 337 337 336 334 334 334 331 328 327 329 331 331 330 329 329 329 329 331 332 331 331 331 329 328 327 326 324 323 321 319 318 316 314 313 312
318 317 316 317 320 319 314 314 314 315 316 316 318 319 318 323 326 333 341 343 343 342 339 334 333 331 331 331 332 334 333 334 339 341 341 341 341 340 339 338 338 338 337 337 337 338 338 338 338 337 337 337 337 335 335 336 335 332 329 329 331 331 330 330 329 329 329 329 331 331 330 330 329 329 328 327 325 324 323 321 319 316 315 313 312
317 317 317 316 318 319 315 314 313 317 321 317 316 317 316 320 324 329 337 340 340 341 340 337 334 332 331 330 331 334 334 334 338 341 341 342 341 340 339 338 338 339 339 337 336 336 337 337 337 337 337 337 337 336 335 336 336 335 333 331 330 330 331 330 329 329 328 327 328 331 330 329 329 329 329 327 324 324 323 321 318 316 315 314 313
316 316 317 316 318 319 315 314 313 316 320 317 314 316 315 317 322 327 332 334 336 340 340 338 336 333 331 331 331 335 336 335 337 339 340 342 341 339 340 339 339 340 339 338 337 337 337 337 337 337 337 337 337 336 335 335 336 337 337 333 331 330 330 329 328 328 328 327 328 330 330 329 329 329 329 328 325 323 323 321 319 316 316 315 313
314 315 316 316 319 319 315 314 314 314 315 315 314 315 315 317 321 326 329 330 333 337 339 339 337 334 331 332 332 337 340 338 336 336 338 340 341 340 340 340 340 340 339 338 338 339 337 336 336 335 337 337 337 336 335 335 336 336 336 334 332 331 329 330 330 329 329 329 328 329 329 329 329 329 329 327 324 324 323 322 320 317 316 315 313
314 315 316 316 318 319 316 313 313 313 313 314 314 314 314 317 320 323 326 327 329 333 338 340 336 332 333 333 333 339 343 342 337 337 336 336 339 341 341 341 340 340 339 339 339 338 336 335 335 335 336 337 337 336 336 335 335 335 335 335 335 333 332 332 331 329 330 330 328 329 330 329 329 329 329 326 325 324 323 323 322 320 317 314 313
315 316 316 317 318 318 315 313 313 314 314 313 314 315 314 315 317 318 319 323 326 331 338 340 336 333 334 334 336 341 345 344 338 337 337 334 338 342 341 341 341 340 340 340 339 338 335 335 335 335 335 335 335 335 335 335 335 334 334 335 335 334 333 332 332 331 331 330 328 329 330 330 328 328 329 328 326 325 323 323 324 323 320 317 314
314 315 316 317 317 316 313 313 314 313 313 314 313 314 314 314 315 317 318 324 329 331 336 340 340 338 335 337 341 343 345 344 340 337 337 335 336 341 342 341 340 340 340 341 339 337 335 334 334 334 333 333 333 333 334 334 334 334 334 334 334 334 332 331 331 331 331 329 330 330 330 329 328 328 328 328 325 324 324 323 324 324 323 319 317
312 313 315 316 316 315 313 312 313 314 313 314 313 313 314 315 315 316 319 323 328 330 333 337 340 340 338 340 343 343 342 344 343 339 337 336 336 340 342 340 339 340 340 340 338 336 334 334 333 332 332 333 333 333 333 333 333 334 333 332 332 333 332 330 329 329 328 328 329 329 329 329 328 327 328 327 325 324 324 324 324 323 322 321 319
313 312 314 316 317 315 314 313 313 314 314 313 314 314 314 315 314 315 317 319 324 328 329 332 338 342 343 343 344 343 341 343 345 342 339 337 337 340 342 340 340 340 340 339 337 335 334 333 332 332 333 333 333 332 332 333 333 332 331 330 331 331 331 330 329 326 325 325 326 327 328 328 327 328 328 327 326 325 324 324 324 322 321 321 320
313 313 314 316 317 314 313 313 313 313 314 313 313 314 314 314 315 315 316 320 325 329 328 330 339 344 345 345 344 343 341 342 344 343 340 338 338 340 342 341 340 340 340 339 337 335 333 332 332 334 333 332 331 330 331 332 331 330 329 329 329 328 328 328 327 324 322 324 325 325 325 325 326 327 327 327 326 326 325 324 323 322 321 321 320
313 314 314 315 316 313 311 312 313 313 314 314 313 314 314 314 314 315 315 319 324 327 327 331 339 343 344 345 344 343 342 342 343 342 341 340 338 339 341 341 340 340 340 338 336 336 335 332 332 333 331 330 330 330 330 329 328 326 326 326 327 326 325 325 325 323 322 324 324 323 322 321 322 324 325 326 326 325 324 323 322 321 321 321 319
315 316 315 315 316 314 311 311 313 312 314 314 313 315 314 314 315 314 315 316 318 321 325 330 338 342 344 345 344 343 342 342 342 342 342 341 339 340 341 340 340 340 339 337 337 337 336 333 332 332 330 329 328 328 328 326 326 325 324 325 326 326 326 325 324 322 323 323 323 321 319 318 319 322 324 324 324 323 323 322 321 321 321 319 318
318 318 317 316 317 316 312 311 312 313 314 315 317 318 315 314 315 314 315 316 316 318 323 328 335 340 343 344 343 343 343 341 342 342 342 340 339 340 341 340 341 339 337 337 337 337 336 334 333 332 331 328 326 326 327 326 325 325 324 325 326 326 326 323 319 318 319 320 319 318 318 316 317 319 319 321 321 321 322 321 321 321 320 318 317
319 320 319 317 318 318 316 313 313 314 314 317 323 325 319 314 314 315 315 315 317 321 324 328 332 337 342 343 342 342 342 342 342 342 342 340 340 341 341 341 340 338 336 336 336 336 335 334 334 332 331 328 326 327 327 327 327 326 326 327 327 327 324 320 315 313 314 315 314 313 313 311 311 311 312 314 315 317 320 320 320 320 320 319 318
320 321 321 319 318 319 319 317 316 317 318 320 323 325 321 315 314 315 315 315 319 323 326 330 332 335 340 342 341 342 342 341 342 343 342 340 340 341 342 341 339 337 336 335 335 335 335 334 333 332 330 328 328 328 328 327 327 327 327 327 326 326 323 316 312 311 311 311 310 309 309 307 307 305 306 307 308 312 318 319 319 320 320 320 318
319 321 323 322 319 319 319 320 320 320 321 322 323 321 319 317 315 314 315 317 320 324 330 334 334 335 340 341 340 341 341 341 342 343 341 340 340 341 341 341 339 337 335 335 335 335 334 333 333 332 329 328 328 328 327 327 327 327 327 326 325 326 323 316 312 310 310 310 309 307 306 305 304 302 303 303 303 308 315 318 319 319 319 319 316
317 320 323 324 322 319 318 319 322 322 321 321 321 320 321 322 319 316 320 323 323 328 333 335 334 336 341 341 339 340 341 341 342 342 341 340 341 342 341 340 338 336 335 335 335 334 333 333 333 330 328 328 328 328 327 327 327 326 326 325 324 325 323 318 314 310 309 309 307 306 304 303 302 302 302 302 302 305 311 315 318 318 318 318 315
318 320 324 325 323 320 319 319 321 323 321 319 320 321 324 326 322 321 326 329 329 332 334 333 334 339 341 340 339 340 341 341 342 342 341 341 341 342 341 339 337 336 336 335 334 333 333 333 331 329 327 328 328 327 327 326 326 325 325 325 324 323 320 316 314 312 310 308 305 303 302 301 301 301 301 302 303 305 310 314 316 317 318 317 315
320 323 326 328 326 321 320 321 321 322 321 318 322 327 330 332 333 333 334 333 331 332 333 333 338 340 340 339 340 340 341 341 342 341 341 341 342 341 340 338 336 336 336 335 333 332 332 332 330 328 327 328 327 327 327 326 326 325 324 324 323 321 318 316 316 314 311 307 303 301 302 301 301 301 301 301 303 305 308 311 313 315 317 316 313
320 325 329 330 327 323 321 322 323 323 322 321 326 333 335 336 337 337 337 334 333 334 335 337 340 340 339 339 340 340 341 342 341 341 341 342 341 340 339 338 336 336 335 334 333 332 331 331 329 327 327 327 327 327 327 326 326 325 325 324 323 321 318 318 317 313 309 305 302 301 301 301 301 301 301 301 302 304 307 309 311 313 315 315 313
320 326 330 331 328 323 322 324 324 324 324 325 329 335 336 335 333 334 335 332 333 336 338 339 340 339 339 339 340 340 341 341 342 341 341 341 340 339 338 337 336 335 335 334 332 332 331 330 328 327 327 327 327 327 326 325 325 325 325 324 322 320 319 319 315 309 306 304 302 301 301 301 301 301 300 301 301 303 306 308 310 312 313 314 313
321 326 330 331 327 323 323 324 323 324 326 329 333 336 338 337 334 332 332 331 334 337 339 340 339 338 339 340 340 341 342 341 341 340 339 339 339 339 338 337 336 335 334 333 332 331 331 330 327 327 327 327 327 326 325 324 324 324 324 324 322 321 320 318 314 308 306 304 302 301 301 301 301 300 300 301 301 302 304 306 307 308 309 310 311
327 328 330 329 325 324 325 322 320 322 327 332 335 337 336 334 331 331 333 334 337 339 339 339 338 338 339 339 340 341 342 342 341 340 338 338 338 339 338 336 335 335 333 333 332 331 331 330 328 328 327 327 326 325 324 324 323 324 324 323 322 320 317 315 311 308 307 305 303 301 300 300 301 300 300 300 300 301 302 303 304 305 305 306 306
330 330 330 327 324 324 326 321 316 319 326 332 336 335 334 334 334 335 336 337 338 339 339 339 338 338 339 340 340 341 341 341 340 338 336 336 338 338 337 335 334 334 334 333 332 331 331 329 328 328 327 327 326 324 324 324 324 324 323 322 322 319 314 311 309 308 307 306 304 302 301 301 300 300 300 300 300 301 301 302 302 302 302 303 302
332 332 328 324 323 325 328 327 323 324 329 334 336 337 338 339 338 338 338 338 338 339 338 338 339 339 340 340 341 341 341 340 339 338 336 335 337 337 335 334 334 334 334 333 332 331 330 328 327 327 327 327 326 324 324 324 324 323 323 321 320 318 314 310 309 308 306 305 304 303 303 302 301 301 300 299 300 301 302 302 301 300 300 300 299
333 332 328 324 325 327 330 333 332 333 335 337 338 340 340 340 339 338 339 339 338 338 337 337 339 340 340 340 340 341 340 339 338 338 336 335 336 335 334 334 334 334 333 332 331 331 330 328 328 327 326 327 326 324 324 324 323 323 322 320 318 316 313 311 309 308 306 305 304 303 304 304 303 302 301 300 300 302 304 304 302 300 299 298 298
334 333 329 326 328 330 333 336 337 337 338 339 340 340 339 339 339 339 338 339 338 337 337 338 339 340 340 340 341 340 339 338 338 337 335 335 335 335 335 335 334 333 332 331 331 331 329 329 329 327 326 326 325 324 324 324 323 323 322 320 316 314 312 310 309 307 306 305 303 303 306 308 307 305 302 302 302 303 305 306 303 301 300 298 297
335 334 331 331 333 335 337 339 339 339 339 339 340 339 339 339 339 339 338 338 338 337 338 339 340 340 340 340 340 340 340 339 338 336 335 335 335 334 335 335 334 333 332 331 330 330 329 329 329 327 326 325 325 325 324 323 323 323 323 321 316 313 312 310 308 307 306 305 303 302 304 307 309 306 303 303 303 303 306 307 304 303 302 300 298
336 336 335 336 338 338 339 339 339 339 339 339 339 339 339 339 339 339 338 338 338 338 339 340 340 340 340 341 340 340 340 340 338 336 335 333 333 333 335 334 333 333 332 331 330 330 330 329 329 328 326 324 324 324 324 323 323 323 323 321 317 314 312 310 308 307 306 305 304 303 302 303 305 304 302 303 303 304 306 306 303 303 303 302 299
336 336 336 337 338 338 338 338 338 338 339 339 339 339 339 340 339 339 338 337 337 338 338 339 340 340 340 340 339 339 340 339 337 336 335 332 332 334 335 333 332 332 331 331 330 329 329 329 328 327 326 324 324 324 323 324 323 322 322 322 319 316 313 311 309 308 307 306 305 305 304 302 302 302 301 302 302 304 306 305 303 303 304 303 302
337 337 337 337 338 338 338 338 339 340 340 340 340 340 340 340 339 339 338 337 338 339 339 340 340 340 340 338 338 339 340 339 337 335 333 331 332 334 334 332 332 332 331 330 330 328 327 327 328 327 325 323 323 323 323 324 323 323 322 322 320 316 314 313 311 310 310 309 308 307 306 304 302 301 301 301 301 304 305 305 304 305 304 303 303
338 337 338 338 338 338 339 339 340 340 340 340 340 340 340 339 339 339 339 338 338 339 340 340 340 339 338 337 336 338 339 337 335 335 333 333 334 333 333 333 333 332 331 329 329 328 327 328 328 326 324 324 323 323 323 323 323 323 322 322 321 318 317 316 315 313 312 312 311 310 310 307 303 301 301 301 300 302 303 304 305 306 305 304 304
338 338 339 338 339 339 340 340 340 340 340 340 340 339 339 339 338 338 339 339 340 340 340 340 339 338 336 336 335 336 338 337 335 335 334 331 332 332 333 334 334 332 330 328 328 329 329 328 327 325 324 324 323 323 323 324 323 323 322 322 321 320 319 317 316 315 313 312 311 312 312 309 304 301 300 301 300 301 302 302 304 306 306 305 304
339 339 339 339 340 340 341 340 340 340 340 340 340 340 339 338 339 339 340 340 340 339 339 339 337 335 334 335 335 336 337 336 335 335 332 330 331 332 333 334 334 332 330 329 328 330 330 329 327 326 325 325 324 323 323 324 323 323 322 321 321 320 319 318 317 315 313 312 312 312 311 309 306 302 300 299 300 300 300 301 304 306 305 304 304
339 339 339 339 339 340 340 340 340 340 340 339 339 338 338 338 340 340 340 340 340 339 338 337 337 335 334 333 334 336 336 335 335 334 330 329 332 333 332 332 333 332 331 330 330 331 330 329 327 326 326 325 324 323 324 324 324 323 322 321 320 319 318 317 316 315 314 314 314 313 311 307 305 303 300 298 299 299 299 301 304 306 305 304 305
338 338 339 338 338 337 338 338 338 338 339 339 337 336 337 339 339 340 341 340 340 340 338 336 336 337 336 334 335 336 335 334 334 333 331 329 331 333 333 333 333 333 332 332 332 331 330 329 328 327 327 325 323 323 324 324 324 324 323 322 320 319 318 317 316 316 316 315 315 314 311 305 301 302 301 298 297 297 298 302 305 305 305 305 305
339 338 338 338 337 337 337 338 337 337 337 338 338 338 339 339 338 338 340 340 339 340 339 336 335 338 338 336 336 336 334 332 332 333 332 330 330 332 333 334 334 333 331 331 332 331 329 329 328 328 327 325 324 324 323 323 323 323 323 322 321 319 318 317 317 316 316 315 315 314 310 304 299 299 299 297 297 298 300 303 305 305 305 305 303
337 338 338 338 338 337 338 340 340 339 338 338 338 338 339 338 337 338 340 340 339 340 339 336 335 337 338 337 336 335 332 329 329 331 332 330 330 331 332 334 335 334 331 330 330 330 328 327 328 328 327 326 325 324 323 323 323 323 323 322 321 320 319 318 317 316 315 315 314 312 308 302 298 297 297 296 296 299 301 304 305 305 304 303 301
335 336 338 338 338 338 339 340 341 339 338 338 339 338 338 338 337 338 339 340 340 339 338 337 336 336 336 337 337 335 330 327 328 330 330 330 331 332 333 334 333 332 331 330 330 329 327 326 326 327 327 326 326 324 323 323 324 324 323 322 320 319 318 317 317 316 315 314 312 310 306 302 298 296 296 295 295 297 299 301 302 301 300 298 297
333 334 336 337 338 339 339 339 339 338 337 337 338 338 338 338 337 337 338 338 338 338 338 337 338 338 337 337 337 334 330 329 330 331 331 331 332 333 333 332 331 330 330 330 329 328 327 326 325 326 326 326 326 325 325 325 324 323 322 320 319 318 317 316 316 315 314 312 310 308 305 302 299 297 296 296 296 296 296 296 296 296 296 296 296
332 332 333 335 336 337 338 339 339 338 337 337 337 337 337 337 337 337 338 338 336 336 336 335 335 336 336 336 336 335 333 332 332 332 332 332 333 332 332 331 331 330 329 328 327 326 326 325 325 326 326 326 326 325 325 324 324 323 322 320 318 317 315 315 315 314 312 311 310 308 306 303 301 300 300 299 298 298 297 295 295 295 296 296 297
Wind_Speed
21 23 28 32 32 29 27 27 23 18 16 14 15 18 18 18 18 18 17 16 15 16 16 16 16 14 13 12 12 12 12 12 12 12 12 12 11 12 12 13 14 14 12 11 10 10 10 10 11 13 13 13 13 12 12 12 12 12 12 11 9 9 10 13 14 15 17 16 15 16 16 16 14 12 13 14 13 10 9 7 5 3 2 3 3
22 20 26 31 31 29 28 28 27 23 20 16 15 18 18 18 19 18 18 18 18 17 17 18 17 14 12 12 12 11 12 13 12 12 12 12 12 12 14 15 15 14 13 13 11 10 11 10 11 12 12 13 13 12 12 13 13 13 12 10 9 10 10 13 15 14 14 16 17 18 18 18 17 15 14 14 13 11 10 8 4 3 4 4 2
24 21 21 25 28 29 28 30 32 29 23 17 14 17 19 19 20 20 21 20 20 19 18 19 19 15 13 12 12 12 12 13 13 13 12 12 12 13 16 17 16 14 14 13 12 10 10 10 11 12 12 12 12 12 13 13 13 13 12 11 10 10 10 12 15 13 12 14 15 16 18 17 14 14 13 12 13 12 11 9 5 6 6 5 2
25 23 20 21 24 27 27 29 32 30 25 20 15 16 20 20 20 21 22 23 22 21 19 19 20 18 14 11 11 11 11 12 13 13 12 12 13 14 16 18 16 15 15 13 12 11 10 9 10 11 11 11 12 11 12 13 13 13 13 12 11 11 11 12 15 14 15 16 15 14 15 13 10 13 14 12 12 12 11 11 9 8 8 5 3
22 22 19 19 22 26 25 25 28 27 27 25 19 17 20 20 20 21 23 24 23 22 21 20 21 19 15 13 12 12 12 12 12 12 14 14 13 14 17 17 17 17 15 13 12 11 11 10 9 10 11 11 12 12 13 13 13 14 14 14 13 12 11 12 15 16 18 18 16 15 14 11 12 17 16 11 9 9 10 12 11 10 9 6 4
19 22 20 16 18 24 26 26 27 25 26 28 22 19 22 20 20 21 22 24 25 24 22 22 23 21 18 18 17 16 14 12 12 13 14 14 13 15 17 17 17 18 16 13 13 12 12 11 10 10 10 11 12 12 13 14 14 14 14 15 14 12 12 13 15 16 20 20 17 18 18 16 19 20 18 12 9 7 9 13 14 11 10 7 5
19 23 24 18 17 23 28 28 28 25 26 29 25 22 24 22 22 20 19 21 24 26 25 24 25 23 21 21 21 19 15 12 11 12 13 14 15 16 17 17 17 17 16 14 14 13 12 12 11 10 10 11 11 12 13 15 15 15 14 15 14 13 13 15 15 16 20 21 19 20 21 21 21 18 16 14 12 10 9 11 13 12 10 8 6
20 22 25 22 19 23 30 31 30 27 28 32 29 27 27 26 25 20 17 17 20 25 27 26 26 24 22 22 22 21 17 13 11 11 13 15 16 17 17 18 17 17 16 15 14 13 13 12 11 11 10 10 11 12 14 16 16 16 15 15 15 15 14 16 16 17 20 21 21 22 23 23 20 16 15 15 13 13 12 10 12 13 11 10 9
23 23 23 23 23 26 30 31 32 30 31 35 33 30 29 28 26 21 19 17 17 22 26 27 27 26 24 24 23 21 19 15 11 11 14 15 16 16 16 17 17 17 16 15 14 14 13 13 12 11 11 10 11 11 13 14 15 16 16 16 17 17 16 16 17 18 20 22 23 24 25 23 20 16 15 15 14 15 15 14 14 12 10 11 12
23 24 23 22 23 28 31 30 30 31 32 35 34 31 30 30 28 24 21 19 17 20 25 27 28 27 26 25 24 22 20 18 13 12 14 14 16 17 17 18 17 17 18 16 15 14 14 13 13 12 12 11 11 11 13 14 15 15 17 18 18 18 17 17 18 19 20 22 22 24 24 22 20 21 20 19 19 16 14 15 17 15 13 14 14
22 23 24 22 21 26 30 28 27 28 30 33 32 31 31 31 31 27 22 20 19 21 25 27 28 28 27 26 25 23 23 21 15 14 15 15 17 18 18 18 16 16 17 17 16 15 14 14 13 13 12 12 12 11 12 14 14 15 16 18 19 18 16 17 18 18 20 22 22 23 25 24 24 26 25 24 23 19 15 16 17 16 14 13 14
24 23 24 24 22 25 30 29 27 26 27 30 30 29 30 30 32 30 26 22 21 23 26 27 29 30 28 27 27 26 25 24 19 14 15 16 17 18 18 18 16 15 14 15 15 14 13 14 14 13 13 13 12 12 12 12 13 13 15 17 17 17 16 17 18 19 20 22 23 23 24 25 27 28 28 26 23 19 17 17 16 15 13 11 12
28 26 25 25 23 25 31 30 28 28 28 30 30 28 28 29 31 32 30 27 24 24 25 26 29 31 30 29 29 28 27 27 23 17 15 16 17 19 18 18 17 15 14 14 12 11 12 13 14 13 13 13 13 12 12 12 12 12 14 16 17 16 15 17 18 19 21 22 23 24 23 23 25 27 29 28 22 16 15 16 15 15 13 11 11
27 27 27 26 24 26 33 32 30 30 31 32 31 28 28 28 30 31 31 30 26 24 24 26 29 32 32 31 31 27 25 27 27 22 18 16 17 19 18 17 16 14 14 13 11 10 11 11 12 13 13 13 13 13 13 12 12 13 13 14 15 15 14 16 18 18 20 22 23 25 24 23 23 25 29 28 23 17 17 18 17 14 13 11 11
23 24 26 28 25 27 34 35 32 31 32 33 32 30 29 29 29 30 30 31 30 27 25 25 30 34 33 34 34 26 21 24 27 25 22 17 17 19 19 17 15 13 13 12 11 11 10 10 11 13 13 13 13 13 13 13 13 14 13 12 14 15 15 17 18 19 21 22 22 25 26 25 24 26 28 25 19 17 19 21 20 16 14 12 11
19 21 24 26 26 29 35 37 34 33 33 34 34 32 31 30 29 29 28 30 32 30 25 24 30 35 35 37 35 24 19 22 27 27 23 19 17 18 19 17 16 15 13 12 13 12 10 10 12 13 14 14 14 13 13 13 13 14 13 12 14 16 16 18 19 20 21 21 22 25 26 26 23 22 23 22 17 17 19 22 23 20 16 14 13
19 20 21 23 26 32 37 38 36 35 34 35 35 33 31 30 29 29 29 31 33 31 25 22 27 33 37 36 30 23 19 21 26 29 24 20 19 18 18 18 17 16 15 14 14 12 11 12 13 13 13 13 13 13 13 14 15 15 15 15 15 15 14 15 17 20 20 20 22 24 25 26 23 19 19 20 18 19 21 23 24 23 19 16 15
22 22 22 22 25 30 35 38 37 36 36 36 36 34 31 31 30 30 30 31 33 31 26 22 22 28 35 34 27 23 22 19 22 28 26 21 20 19 18 19 18 17 16 15 14 13 13 13 13 13 12 11 12 13 14 16 16 16 16 15 13 12 11 10 10 13 14 15 17 19 20 21 20 17 17 17 17 19 22 24 24 21 18 15 13
22 24 25 24 25 28 31 35 38 37 36 36 36 34 33 32 31 31 31 31 31 30 27 23 20 22 27 28 25 24 23 20 20 25 26 23 21 20 19 18 18 17 17 15 14 14 14 13 12 12 12 12 13 14 15 16 16 15 14 12 9 7 8 10 9 9 11 13 15 16 15 14 14 15 16 16 16 17 19 21 21 19 17 15 13
19 22 24 25 27 31 31 32 35 37 37 36 36 36 35 34 33 33 33 32 31 29 28 25 21 19 22 23 24 24 23 22 21 23 26 24 21 20 19 18 19 18 16 15 15 15 14 13 12 11 13 13 13 14 15 15 15 12 8 6 5 4 6 8 9 10 11 12 14 14 13 12 13 16 17 17 16 16 17 18 19 18 17 16 14
19 20 22 23 27 34 35 33 32 34 36 36 37 37 36 36 36 35 34 33 32 30 29 27 22 19 21 23 24 24 24 23 22 23 24 22 21 21 20 19 20 19 17 16 14 12 11 13 12 11 12 12 12 13 13 11 9 6 5 4 4 4 5 7 10 11 11 12 11 11 12 13 15 17 18 17 16 16 16 17 18 18 18 17 15
17 19 21 23 26 33 37 36 33 33 34 35 36 36 37 38 37 36 36 35 34 31 30 29 23 18 20 23 23 23 23 23 24 23 22 22 22 22 21 21 21 19 18 16 12 10 9 10 11 10 10 10 9 10 10 8 6 6 5 4 4 4 6 8 11 12 13 13 11 11 13 14 16 16 16 15 15 16 17 17 19 19 17 16 15
14 17 20 22 23 28 36 39 37 35 34 33 33 34 37 38 37 36 36 36 36 34 32 32 27 20 19 23 24 23 23 24 24 22 22 23 23 22 23 23 22 20 19 15 11 10 9 8 8 7 8 9 8 9 9 8 6 6 6 4 4 4 6 9 10 11 12 12 12 12 13 14 15 15 14 14 15 17 16 17 19 19 17 18 20
15 17 19 21 22 24 31 38 39 37 35 32 31 32 35 37 36 35 36 37 37 37 35 34 30 23 19 21 24 24 24 25 23 21 23 25 25 24 24 23 23 22 21 17 12 11 10 8 8 7 8 8 8 8 9 8 7 7 6 6 6 5 7 10 11 11 12 13 12 12 13 14 14 15 15 15 17 17 16 16 18 20 21 22 24
16 18 18 21 23 24 25 30 34 35 34 32 31 31 34 36 36 35 36 38 39 38 36 35 32 25 20 22 24 24 25 26 23 22 25 27 26 25 24 23 24 23 21 18 15 12 10 9 8 9 9 8 7 8 8 8 8 8 8 8 7 8 9 11 12 12 12 13 12 12 13 13 14 14 15 15 16 17 16 17 19 21 22 23 23
18 19 19 21 24 25 24 25 28 31 32 31 30 32 33 35 36 36 37 39 40 39 35 34 32 24 21 24 26 26 26 26 24 23 26 27 26 25 25 25 25 22 21 18 14 11 11 9 9 11 11 9 7 8 8 9 10 10 10 9 9 10 11 11 11 12 11 12 12 12 13 13 13 14 14 15 16 17 18 19 19 20 21 23 23
21 21 21 21 23 25 25 24 26 29 30 30 30 32 33 35 37 38 38 38 38 37 35 34 30 24 23 26 26 25 26 26 25 24 26 28 26 25 26 26 24 22 20 18 14 12 11 10 11 13 12 9 8 8 8 10 11 11 10 9 9 12 13 12 12 11 11 11 12 12 13 13 13 14 14 14 15 17 18 19 19 20 21 22 23
23 23 22 22 24 25 26 26 26 26 28 30 30 32 33 34 37 37 36 37 37 36 35 33 28 24 25 27 26 25 25 26 26 26 27 28 26 26 26 26 25 23 20 18 16 13 12 12 13 13 11 10 9 9 10 11 11 10 9 9 10 12 14 14 13 12 11 12 12 12 13 14 15 15 14 14 15 16 17 18 20 21 21 21 22
24 24 23 24 24 26 26 27 27 26 27 29 30 31 32 32 32 33 33 35 37 35 33 30 26 26 28 27 26 27 26 26 27 27 29 28 27 27 27 27 26 23 20 19 18 16 14 13 14 13 11 11 11 11 12 11 10 9 10 11 12 14 15 14 13 13 12 12 12 13 14 16 16 15 14 14 14 14 15 16 19 20 20 21 21
24 24 23 24 25 27 27 27 28 28 28 30 30 29 30 31 31 31 32 34 34 31 28 27 25 28 29 27 27 28 27 27 28 29 29 28 28 29 28 28 27 23 19 19 20 18 16 15 15 14 12 12 12 13 13 12 11 11 11 12 14 16 17 15 13 13 12 11 12 13 14 15 16 15 15 15 15 15 14 15 16 17 19 20 21
26 25 24 24 26 29 29 29 30 30 30 31 31 30 30 32 32 33 33 34 31 28 27 27 27 30 30 28 29 30 28 26 28 31 30 29 31 30 29 30 28 23 20 20 21 19 16 15 16 14 13 13 14 14 13 12 11 11 11 13 15 17 17 16 14 12 12 12 13 14 15 15 15 16 16 17 17 17 16 15 15 15 16 18 19
28 27 25 25 28 31 32 32 32 32 32 32 32 31 30 31 32 33 34 33 29 27 27 27 29 31 30 29 30 30 27 26 30 33 31 30 32 31 30 31 28 25 22 21 22 21 17 16 16 14 14 15 14 14 12 10 10 11 12 14 15 16 17 16 15 14 14 14 14 14 15 15 15 16 17 17 18 18 18 18 17 16 15 16 17
28 27 25 25 28 31 32 34 34 33 33 33 32 31 31 33 34 34 33 31 30 29 28 29 32 32 31 31 32 29 27 28 33 34 31 31 32 32 33 31 28 25 23 21 23 23 19 16 16 15 15 16 15 13 12 10 9 9 10 13 14 15 16 16 16 15 15 15 14 14 15 15 15 16 17 18 18 18 19 19 18 17 16 16 17
27 25 24 24 27 30 32 35 36 35 35 34 32 32 32 32 32 31 30 30 31 31 29 31 34 33 32 33 31 28 28 30 33 34 32 31 32 34 34 30 26 25 23 21 24 24 20 18 17 16 16 17 15 14 12 10 8 7 8 11 13 15 15 15 16 16 15 14 14 14 15 16 16 16 18 19 18 18 19 18 17 17 17 18 18
25 23 23 24 27 29 30 34 36 36 34 33 31 30 30 29 29 29 29 30 31 31 31 34 35 34 35 34 30 28 29 30 33 34 31 31 33 33 31 27 26 27 24 22 23 22 21 21 20 18 18 17 16 15 13 10 9 8 7 9 12 15 16 16 16 15 15 14 14 14 14 15 16 16 17 18 18 18 18 17 16 16 16 17 19
21 20 21 24 26 28 29 31 32 32 32 31 31 30 30 30 30 29 30 31 31 31 33 35 35 35 34 32 30 30 29 31 35 34 31 32 34 33 29 29 30 27 21 19 21 21 22 23 21 19 19 18 17 16 14 11 10 9 8 8 11 14 16 16 16 16 15 15 14 14 14 14 15 16 17 17 18 17 16 15 15 15 15 17 19
16 16 18 21 24 26 27 28 28 30 31 31 32 31 30 30 30 29 30 31 31 32 35 36 35 34 33 32 33 33 32 33 36 35 31 32 34 33 32 31 29 25 20 19 20 21 23 24 22 20 20 20 19 18 16 13 11 10 8 8 11 13 15 16 16 16 16 16 16 16 14 13 13 16 16 16 16 16 14 13 14 14 14 17 18
13 13 17 19 22 24 25 27 28 30 30 30 31 30 30 31 31 30 30 32 33 34 36 37 35 34 34 34 34 35 37 38 38 35 31 32 34 34 33 30 26 23 23 22 19 20 24 26 23 20 20 21 21 19 17 15 12 10 9 8 9 11 13 15 15 15 15 15 16 16 16 14 13 15 16 15 15 15 14 14 15 14 14 15 16
11 14 18 21 23 25 25 27 28 28 28 29 30 30 31 31 31 31 32 34 36 37 37 37 36 36 35 34 34 37 40 41 38 34 31 31 34 35 33 28 23 22 25 23 18 18 23 25 24 21 19 20 22 21 19 17 14 12 10 8 8 9 10 11 12 13 13 14 14 14 16 16 16 16 16 16 15 15 15 16 17 15 14 13 14
12 15 19 21 23 25 26 27 28 28 29 29 29 31 32 31 30 30 33 36 38 38 37 36 36 36 34 31 33 38 42 41 38 35 32 31 34 35 31 26 23 24 25 22 18 19 23 25 24 22 21 21 22 22 21 19 15 13 11 9 9 10 9 9 11 12 12 13 13 13 14 16 16 16 16 17 17 16 16 18 17 15 15 15 14
14 17 20 22 24 25 26 27 27 28 29 28 29 30 31 30 30 31 33 36 37 36 35 33 35 36 33 29 32 38 42 41 38 34 31 31 32 32 29 27 27 25 22 21 22 25 26 25 23 23 23 22 22 23 23 20 16 14 12 10 9 10 9 9 10 10 9 10 11 12 14 14 15 16 17 18 18 18 18 18 17 17 18 16 13
16 18 21 22 23 24 25 26 27 27 27 27 28 29 28 29 30 32 33 35 35 35 36 35 35 35 31 31 34 37 39 40 37 34 32 31 32 32 31 31 30 25 22 24 28 29 27 25 24 24 25 23 22 23 23 20 17 15 13 11 10 10 10 10 9 8 8 8 9 11 14 14 14 16 18 20 20 20 19 19 19 20 19 15 12
16 18 20 22 23 25 25 25 25 25 25 26 27 28 28 29 30 32 33 34 35 37 38 36 35 33 33 34 36 36 38 40 38 34 32 33 35 35 33 33 33 28 26 28 30 30 29 27 25 26 27 24 24 24 23 20 17 16 14 13 12 12 11 10 9 8 7 7 9 12 14 14 14 15 17 19 21 21 20 20 20 20 19 15 13
15 17 19 21 23 23 23 22 22 22 22 23 24 26 27 28 30 34 35 34 35 35 34 33 33 33 34 36 36 36 40 41 37 34 33 34 36 36 35 35 35 32 29 29 30 32 32 30 28 28 27 25 25 25 23 20 18 16 15 15 15 14 13 11 9 8 8 8 10 13 14 13 14 16 16 18 21 21 21 21 20 20 19 17 15
15 15 16 18 20 21 21 21 21 20 20 21 22 23 25 28 31 35 35 34 33 32 30 31 34 34 34 35 36 38 41 38 34 33 34 35 36 37 37 36 34 32 30 30 30 32 33 32 31 29 27 27 27 26 24 22 19 17 17 17 16 15 14 12 11 11 11 11 13 14 13 12 15 16 16 18 20 21 21 20 20 20 20 19 17
15 15 14 16 18 20 21 21 21 20 19 21 21 23 26 28 30 31 32 31 30 31 31 32 35 37 35 32 35 40 39 34 31 33 35 36 37 38 37 35 32 31 30 30 31 33 35 33 31 30 29 29 28 27 26 24 21 19 19 19 19 17 16 14 14 13 13 12 13 14 13 12 14 16 17 17 18 19 20 21 22 21 21 20 20
14 14 14 15 17 19 20 21 22 20 19 20 21 23 27 28 26 27 30 29 29 33 34 31 33 38 36 33 37 38 32 28 31 35 37 37 37 36 35 34 33 31 27 27 30 34 34 32 31 31 31 30 28 27 27 26 24 22 21 20 19 18 17 16 15 13 12 12 13 13 12 12 12 15 16 16 17 18 20 21 22 22 21 22 22
11 12 12 14 16 17 19 22 23 20 17 20 22 22 24 25 23 25 31 31 30 34 34 30 32 36 36 36 39 35 28 28 33 36 35 35 36 35 33 33 33 32 29 28 30 31 30 29 30 32 32 32 30 28 26 26 25 23 21 20 19 17 16 16 14 13 12 14 15 14 13 12 13 15 16 16 16 17 19 21 22 22 22 23 24
9 8 10 11 13 15 18 22 24 20 16 20 24 22 21 24 24 27 32 33 31 33 33 31 32 35 36 39 39 33 29 32 34 34 34 34 33 32 31 31 32 34 32 29 27 25 24 24 29 33 34 34 32 29 26 24 22 19 16 15 14 14 15 15 15 14 15 16 16 16 14 13 15 17 18 18 18 18 19 21 22 22 21 22 23
10 9 7 7 11 15 16 18 22 21 17 18 22 21 21 24 25 26 29 30 31 33 34 32 33 35 38 41 39 34 32 33 34 35 35 34 32 31 31 33 34 33 29 24 22 20 18 19 24 31 33 32 31 28 25 22 18 15 13 12 12 13 14 16 16 16 16 15 14 15 15 15 16 18 19 19 19 19 20 21 21 21 21 21 21
9 9 9 6 7 12 15 16 19 20 17 16 18 19 20 22 24 26 29 31 32 34 34 33 35 37 38 37 36 35 35 35 35 35 33 32 32 32 33 34 33 27 23 21 19 18 16 16 20 25 27 26 24 22 20 20 18 17 16 16 17 17 17 18 17 16 17 17 16 16 16 15 16 17 18 19 20 20 20 21 21 21 21 22 22
Wind_Direction
216 219 226 237 246 239 228 233 238 239 243 243 244 246 240 232 227 219 216 218 223 228 233 232 225 218 209 203 205 206 206 208 213 213 211 215 212 206 208 202 194 194 194 194 200 209 207 204 208 206 203 206 211 215 217 219 223 224 223 221 213 209 209 205 212 220 216 209 194 182 185 187 176 176 192 196 190 182 190 197 193 198 238 267 334
217 214 224 235 237 228 220 225 234 239 242 243 244 245 241 233 229 221 215 219 224 229 237 239 232 219 205 202 203 200 205 209 211 213 213 214 210 207 209 202 193 195 196 191 195 206 210 208 207 206 206 209 211 215 219 221 223 223 221 217 213 212 210 210 214 215 216 216 202 184 178 182 185 188 191 190 186 184 191 196 201 229 239 242 291
219 210 213 224 224 219 218 224 232 238 240 238 239 244 243 239 234 223 215 217 222 227 232 237 235 227 212 204 201 196 202 209 210 211 213 213 211 209 208 202 194 197 199 192 195 204 210 214 209 204 206 208 209 214 221 223 221 220 220 217 217 218 210 216 221 208 199 207 202 189 180 175 180 187 187 188 191 192 194 197 215 250 248 229 252
218 213 204 209 219 226 226 225 229 234 236 234 233 242 246 244 235 223 215 215 220 224 227 232 235 232 221 207 200 196 200 209 209 209 216 217 215 209 203 200 196 198 200 196 199 205 207 212 208 201 204 208 207 212 220 221 218 216 220 222 223 225 217 220 224 209 199 198 191 190 189 178 176 185 184 185 193 196 198 203 213 229 234 225 234
222 221 211 203 216 230 235 234 233 232 236 238 240 248 252 248 237 225 216 215 219 223 224 228 232 228 219 209 202 200 201 206 206 208 217 219 214 207 200 197 198 200 201 201 203 208 208 208 206 202 206 210 208 212 221 220 215 215 223 228 232 232 223 227 231 214 206 207 203 202 195 188 198 193 183 181 193 197 200 209 214 216 221 225 235
230 232 227 216 221 232 234 235 238 237 239 241 245 255 257 251 241 229 218 215 217 220 221 227 232 229 222 218 213 209 202 201 205 207 214 216 210 205 199 197 200 202 202 204 206 209 211 210 209 208 210 214 212 213 222 225 220 217 224 233 237 236 225 229 238 226 213 212 216 218 210 209 214 196 179 179 186 191 205 213 217 221 225 227 229
232 233 233 230 231 238 236 235 240 244 245 246 249 256 258 254 245 231 217 214 215 217 218 223 233 233 226 225 224 221 212 201 201 202 207 209 204 201 199 198 201 203 204 206 210 212 214 215 214 215 216 217 217 214 218 227 229 224 228 237 241 240 232 230 235 235 225 218 221 226 221 224 228 212 198 195 187 189 211 218 215 216 222 222 221
228 230 232 232 232 238 241 241 243 245 248 252 254 255 258 257 247 228 210 211 213 217 219 221 231 235 230 226 226 225 219 209 201 199 203 204 199 197 200 203 203 202 206 210 213 214 217 218 218 220 220 222 222 218 219 226 232 235 237 240 241 239 238 235 235 237 234 230 229 226 222 227 231 224 224 224 206 192 191 200 207 208 212 213 213
228 228 230 234 235 238 242 244 245 244 246 252 255 255 254 252 243 227 214 214 213 215 220 221 226 233 234 229 225 223 220 215 205 200 203 201 198 200 204 210 210 205 206 212 215 216 218 220 222 223 223 225 226 221 222 225 228 236 242 243 242 243 244 240 238 241 241 238 235 228 224 226 221 213 218 217 212 203 191 191 196 192 197 207 210
230 230 231 235 240 241 242 244 247 247 247 251 254 252 250 246 240 230 218 217 216 215 220 221 222 228 232 232 228 223 220 216 205 199 201 198 199 203 207 211 211 206 204 209 214 216 219 221 222 226 227 230 231 224 223 225 222 226 239 245 245 245 246 241 237 240 242 240 235 229 225 221 218 221 218 207 211 219 205 196 195 188 189 202 210
229 230 232 236 241 242 244 245 246 249 250 252 252 251 250 246 243 237 222 215 216 219 222 222 221 224 228 232 231 226 223 219 205 193 197 198 198 203 208 211 210 208 206 208 212 214 219 224 223 227 230 232 236 235 232 232 227 224 230 240 243 242 243 242 239 238 238 237 234 232 230 228 233 237 230 216 214 217 205 193 196 194 191 203 212
229 232 232 235 239 241 244 245 246 247 249 251 251 251 250 248 245 241 229 219 220 224 225 222 222 223 224 229 232 229 226 223 211 193 193 198 201 202 208 213 211 209 208 211 214 213 216 223 225 226 231 235 238 243 244 240 238 233 229 232 237 242 245 241 238 234 232 232 230 231 233 235 241 244 240 228 217 213 207 195 188 185 181 190 206
230 232 233 234 235 238 242 245 246 246 247 251 253 251 249 247 244 240 235 230 226 223 224 223 224 224 222 225 231 228 224 225 221 210 199 197 203 206 208 213 212 208 208 212 214 214 216 222 226 226 229 236 241 246 251 248 244 241 239 237 235 238 247 245 238 233 231 230 230 230 229 232 238 243 244 238 225 213 205 195 185 178 174 173 186
230 230 232 233 231 236 242 244 245 246 248 252 254 252 250 246 241 240 238 236 231 226 224 222 224 226 223 222 228 224 217 220 222 220 215 207 207 210 211 214 214 210 211 212 210 214 221 224 227 226 226 236 244 248 254 256 253 248 247 248 239 233 241 244 239 234 230 228 231 233 228 226 233 240 242 239 231 216 203 203 196 175 165 171 180
227 227 228 231 232 237 243 245 244 245 248 250 252 251 250 247 242 240 238 237 236 232 224 219 221 224 222 221 225 221 211 214 218 220 221 219 214 211 211 213 214 213 215 215 213 218 225 229 231 228 226 232 240 247 254 259 263 262 258 254 246 239 238 241 239 233 228 225 229 233 226 221 226 234 239 240 230 210 209 221 220 193 173 173 181
225 225 226 228 231 237 242 244 243 243 245 248 249 248 248 248 246 243 242 241 239 233 223 217 217 217 219 221 222 217 206 209 216 218 218 219 216 212 212 213 213 215 215 215 221 227 229 229 231 231 230 233 238 245 252 256 260 265 267 265 259 250 237 230 228 225 222 218 222 227 223 218 219 226 238 244 230 209 214 231 236 226 206 184 179
228 227 227 226 228 234 238 241 242 241 241 244 246 247 248 249 249 247 243 239 236 231 224 217 212 211 216 219 216 210 205 206 213 218 215 214 216 214 213 214 215 216 215 218 227 232 230 228 231 233 234 238 244 250 254 257 260 266 272 272 269 264 247 228 221 218 217 214 217 223 220 215 215 217 230 240 232 218 220 231 240 239 226 197 183
232 231 230 228 227 230 232 235 238 240 239 241 243 245 247 248 249 248 244 238 236 234 229 222 213 210 214 216 212 210 210 204 209 216 215 211 214 215 213 213 214 214 216 223 231 231 227 228 231 234 236 241 251 260 261 262 265 267 270 267 263 267 266 256 235 216 211 207 205 209 208 207 208 207 214 226 229 223 225 237 241 233 221 206 196
233 232 231 230 230 230 230 231 233 237 238 238 240 241 243 245 246 246 246 244 240 237 235 227 216 209 211 212 210 210 211 206 203 211 214 211 210 213 214 212 212 213 217 225 229 227 226 228 231 234 238 244 252 258 260 260 261 262 263 260 252 253 262 267 255 217 201 191 183 184 186 190 197 201 207 217 225 226 231 240 236 221 214 214 211
235 234 233 231 232 233 232 230 230 233 235 235 235 236 237 240 242 242 244 244 238 235 236 229 215 207 206 206 208 209 210 207 202 206 211 210 208 213 215 212 211 213 217 224 227 226 226 226 229 236 243 247 250 253 255 254 255 254 248 236 223 227 247 252 238 213 201 193 187 186 182 183 196 205 211 217 222 228 232 231 222 214 213 211 208
238 237 236 234 234 234 234 232 229 231 233 234 233 232 232 235 238 239 240 240 237 234 234 228 214 205 203 203 206 207 207 206 204 203 206 205 206 213 218 214 211 213 217 222 221 219 219 222 225 234 244 250 250 248 246 241 233 214 181 158 166 197 225 227 216 209 209 205 201 197 188 190 202 208 210 216 222 226 226 217 209 208 210 206 202
245 244 241 237 236 235 234 231 229 230 231 233 232 231 230 230 232 236 237 238 239 237 234 228 217 206 202 202 205 205 203 205 204 199 199 202 206 213 217 213 211 212 214 211 206 204 210 216 220 227 238 243 241 235 226 213 194 175 166 162 174 199 219 220 213 209 207 205 203 199 195 199 208 211 212 214 218 221 219 210 204 205 206 204 199
262 258 250 243 239 237 235 231 229 229 229 231 231 229 229 227 226 230 232 234 237 236 234 230 222 208 199 202 206 204 200 202 200 195 198 202 205 211 214 210 208 208 205 200 199 203 204 203 206 213 224 232 233 224 210 196 184 180 183 198 208 214 223 216 204 199 199 198 199 201 204 209 212 214 213 210 211 217 216 208 205 204 201 204 207
279 273 260 249 241 238 235 231 229 229 229 228 226 225 228 228 224 224 227 230 232 232 232 230 224 211 198 200 204 202 200 200 196 193 198 202 205 210 212 208 204 202 199 200 205 204 199 197 196 196 206 223 227 213 199 190 187 192 207 223 219 212 216 206 190 187 192 193 195 203 209 212 214 215 214 213 217 218 212 204 205 207 208 213 216
284 278 267 252 241 235 232 229 227 227 227 227 225 225 228 229 225 223 224 226 228 228 228 227 223 213 200 200 203 200 200 200 194 192 199 203 206 210 209 205 202 199 198 205 210 204 197 196 193 194 201 211 211 198 192 192 196 206 222 232 223 209 207 200 190 190 194 195 198 206 209 209 210 214 214 215 219 216 207 204 209 212 215 218 216
286 279 269 254 241 234 229 225 222 223 224 225 226 227 228 228 226 224 224 226 226 225 224 222 220 210 200 204 205 199 199 198 191 191 199 202 206 209 207 202 199 197 199 205 207 201 196 190 186 196 204 200 189 188 192 197 205 217 226 233 228 210 203 199 194 194 199 205 208 209 211 210 208 208 209 212 214 211 208 209 212 213 215 216 212
284 278 268 256 241 232 226 222 219 219 222 224 227 227 224 222 223 223 223 224 223 221 218 216 214 206 199 204 203 197 197 196 189 190 197 201 205 207 203 197 195 196 199 203 204 198 192 184 184 195 200 189 178 184 190 197 210 220 223 227 223 206 199 201 199 195 199 208 214 212 209 205 199 196 199 204 206 206 206 208 210 212 214 214 211
280 272 263 254 242 230 223 219 216 215 219 223 225 224 219 218 220 220 218 218 218 215 214 213 208 202 201 201 198 196 195 191 187 190 197 201 202 201 197 193 193 195 197 205 211 202 185 179 186 194 190 180 179 184 187 195 208 216 214 211 205 196 195 199 199 196 197 205 211 209 202 197 192 188 190 195 198 200 202 206 207 209 212 212 210
276 271 261 250 240 228 219 215 213 213 215 218 219 217 213 211 212 211 209 213 215 213 211 208 200 200 203 197 193 196 193 186 186 191 198 200 198 195 193 192 193 193 195 205 214 206 187 181 188 190 185 182 185 186 190 197 205 209 209 204 195 190 192 195 197 196 195 200 207 203 197 194 190 186 186 187 189 191 197 204 206 206 209 210 210
274 271 259 244 232 224 216 211 211 212 213 214 213 209 206 205 205 205 205 209 209 205 202 199 196 200 200 193 193 194 187 183 188 193 196 196 193 191 191 192 193 192 196 205 210 204 191 187 190 188 185 186 186 187 195 203 206 208 211 207 199 195 193 195 200 198 193 198 206 203 198 197 193 189 188 187 184 183 188 197 203 205 208 211 214
271 265 254 239 227 218 211 208 209 210 210 210 209 204 203 205 206 207 208 207 204 196 192 194 198 199 195 192 193 190 182 182 188 191 192 192 191 190 191 192 191 190 197 205 205 198 188 185 188 186 184 184 184 188 197 203 206 209 211 207 204 201 200 204 205 196 191 200 206 204 200 198 197 194 193 192 187 183 183 186 189 197 207 213 218
269 260 250 236 223 213 207 206 208 209 207 207 205 200 198 199 203 206 207 205 199 192 190 194 197 194 191 190 190 186 181 183 188 190 191 192 190 189 190 190 188 191 200 206 203 195 186 183 184 183 181 181 181 188 195 198 201 206 208 207 205 203 204 208 206 197 196 201 203 201 199 199 200 200 199 198 194 189 186 184 183 188 197 207 214
265 255 244 232 219 209 205 207 209 208 206 203 199 196 196 200 205 205 201 196 191 188 191 195 194 191 189 188 186 183 180 182 187 189 191 191 191 188 188 187 188 197 205 206 201 195 187 183 184 181 180 179 181 187 189 187 189 197 203 205 205 204 202 204 205 203 202 202 199 197 199 201 201 203 205 203 198 195 193 192 190 190 194 202 207
259 246 236 224 212 204 203 207 211 210 206 201 197 197 199 200 198 194 189 187 187 188 191 193 192 189 188 186 185 182 180 182 186 189 192 194 192 188 185 185 192 201 204 201 199 194 186 183 183 180 179 179 182 186 183 179 178 184 195 201 203 203 202 201 204 205 205 204 201 199 201 205 205 207 209 206 201 200 200 198 197 197 198 201 200
248 235 226 215 206 201 199 202 205 205 201 196 192 191 190 186 183 182 183 185 186 188 190 190 188 187 186 186 185 182 181 183 186 190 195 194 189 186 185 190 198 201 200 199 197 191 185 185 184 180 180 181 183 185 181 175 172 170 178 193 199 202 202 203 205 205 204 205 205 203 204 208 209 210 213 211 205 202 202 201 200 201 201 199 195
239 228 219 208 199 196 194 193 194 192 189 186 184 182 181 180 180 181 182 184 186 189 190 188 186 184 183 186 188 184 180 182 187 190 192 191 187 187 191 197 198 195 192 192 191 187 186 187 185 184 184 184 186 187 181 172 167 164 167 180 193 199 201 203 205 206 204 205 206 207 207 210 213 212 212 213 210 204 203 206 205 204 202 199 199
236 224 211 201 194 190 187 184 183 181 180 180 179 178 179 178 179 180 181 183 186 189 188 186 183 181 184 191 193 188 183 186 189 189 189 190 189 189 195 197 193 189 188 186 185 186 188 188 187 189 190 189 191 190 183 176 172 169 169 176 187 197 202 204 205 205 203 205 207 207 206 209 216 216 210 209 211 207 203 208 213 211 207 204 205
223 208 193 186 182 179 175 174 173 173 175 175 175 176 177 177 179 181 182 183 184 185 185 183 182 184 190 195 195 192 190 190 189 186 187 190 190 191 193 192 189 191 193 188 183 184 188 190 192 193 194 195 196 193 188 185 184 181 180 180 184 196 205 208 209 209 208 213 216 215 211 208 215 219 212 206 209 207 203 209 216 218 217 214 213
196 184 176 171 169 167 165 167 168 168 171 172 173 175 176 178 180 182 182 182 183 183 184 184 185 190 195 197 195 195 194 191 187 186 187 190 193 193 192 189 190 194 192 185 181 182 186 189 193 195 196 196 196 195 193 193 194 189 186 178 176 194 208 210 213 216 217 220 224 225 223 218 220 221 214 207 206 204 205 213 217 217 221 225 225
168 166 164 162 161 160 160 163 165 167 170 171 173 176 178 179 181 182 181 181 182 185 186 185 187 192 196 195 192 194 194 190 188 187 187 191 196 193 188 184 187 188 185 182 182 181 181 184 189 193 195 195 196 197 197 199 199 194 191 179 173 190 205 208 212 218 223 229 234 236 235 232 230 227 219 212 208 203 209 218 219 217 216 221 230
152 153 153 155 157 158 158 161 163 165 168 171 174 176 179 182 182 181 181 182 184 184 180 179 186 193 193 188 188 193 193 189 187 185 185 191 194 189 184 185 187 184 182 184 184 182 180 182 186 190 191 194 197 197 198 203 203 201 200 190 179 188 198 203 211 217 223 236 245 248 250 247 241 234 227 219 211 206 212 219 219 220 218 216 226
144 147 148 149 152 154 156 158 162 165 166 170 173 176 180 183 182 180 181 183 183 181 179 183 191 193 189 186 188 191 190 187 186 186 186 189 192 189 187 190 190 187 185 188 188 185 183 185 188 189 191 194 196 197 202 208 207 204 205 200 194 199 202 203 210 210 214 228 238 248 255 253 245 240 233 226 217 210 212 216 217 221 222 217 222
137 142 145 145 147 150 153 156 160 164 166 169 174 177 180 181 179 180 183 183 182 183 187 192 192 189 188 189 189 188 187 187 189 190 189 190 192 191 190 191 192 191 189 189 189 188 188 189 190 191 193 195 197 199 204 210 209 207 209 209 209 213 213 213 214 208 211 223 235 250 259 255 244 239 233 227 220 212 211 214 215 218 219 216 217
128 133 139 142 145 147 150 153 158 163 166 170 175 178 176 176 178 183 186 187 189 191 193 192 187 185 188 189 188 188 188 188 189 190 190 190 190 190 191 192 194 195 192 188 188 188 189 190 190 193 197 199 199 201 206 211 212 210 212 214 216 217 217 218 218 215 217 226 241 258 266 257 242 235 228 223 219 214 213 214 212 214 216 214 214
116 125 134 139 145 149 150 152 157 161 165 171 176 178 176 178 182 186 189 192 193 192 191 188 186 187 187 187 189 189 187 188 191 191 190 191 191 191 193 194 195 197 195 193 192 190 190 192 193 197 201 201 200 203 208 212 212 210 212 218 220 218 220 220 220 225 232 242 256 267 270 257 242 232 223 219 219 218 216 212 209 210 213 212 213
114 119 129 137 143 149 152 154 156 159 166 171 174 176 180 184 187 189 192 194 192 188 187 188 191 192 191 187 186 186 187 191 196 193 191 192 193 193 195 195 196 196 197 198 197 192 192 195 197 200 204 202 200 204 208 212 214 213 214 219 219 218 220 222 224 233 244 254 267 275 273 262 246 231 222 219 220 220 216 208 207 211 213 211 212
119 115 121 135 143 148 155 160 161 161 163 167 171 177 184 187 189 191 192 193 194 192 190 189 191 193 194 191 185 183 187 193 194 192 191 193 196 198 199 198 197 196 194 194 194 193 196 200 202 203 204 203 202 206 209 212 215 217 216 218 221 221 222 226 231 239 250 261 269 273 271 260 242 226 220 219 219 218 213 208 209 214 217 216 213
112 117 121 132 142 153 162 165 164 164 166 169 172 179 186 188 188 192 194 193 195 194 191 189 190 192 194 192 187 186 189 191 189 189 191 193 198 201 204 204 201 197 195 192 192 197 203 208 209 207 205 204 205 209 210 211 215 220 222 221 222 222 223 228 233 237 246 257 263 262 258 246 230 220 215 215 214 213 212 213 216 220 220 219 216
70 101 121 133 143 157 166 168 166 164 166 173 177 182 188 188 186 189 192 193 193 194 194 194 194 193 193 190 187 189 193 190 187 189 193 195 199 202 205 205 199 194 196 197 198 204 212 215 213 208 204 204 206 205 205 208 216 222 222 217 216 217 220 227 232 233 239 248 251 250 247 238 227 220 214 211 211 211 212 216 220 221 219 217 216
46 59 87 126 151 159 163 168 170 169 166 171 177 181 187 190 190 192 195 194 191 191 194 194 192 193 194 193 191 191 193 192 193 195 196 197 200 202 202 197 191 191 197 200 202 210 219 221 215 209 207 210 212 210 208 211 215 212 203 197 200 208 216 223 227 230 235 239 239 239 238 234 229 225 220 215 213 213 215 217 218 218 218 217 217
55 53 58 77 140 164 168 170 174 178 179 179 178 178 181 186 191 195 196 193 189 190 192 193 194 196 197 197 194 193 195 199 200 199 198 197 198 198 196 191 189 192 195 197 201 208 212 214 212 209 209 212 213 210 207 207 208 206 201 200 205 209 215 221 224 227 230 233 232 230 229 228 226 224 221 219 218 218 220 221 220 221 223 223 224